STARLINK-37615, 69030

Orbit data source: Space-Track

STARLINK-37615, 69030 is a payload satellite owned by SpaceX/Seattle (US) in SSO that was launched on Wed, 06 May 2026 UTC via an FALCON 9 launch vehicle from the Air Force Western Test Range (AFWTR). Payload-class satellites include a variety of spacecraft equipped with specific instruments for various scientific and technological missions. These include communications satellites like Starlink; space stations such as the ISS; scientific satellites like the Hubble; Earth observation satellites from companies like Planet Labs, Umbra, and HawkEye 360; GPS; miniature CubeSats for education and research; and military/defense satellites.

Loading next visibility...
Identifier
69030, 2026-101F
Orbit
SSO
Country
Flag of USUS
Related business
Manufacturer
SpaceX/Seattle
Mission
Operational spacecraft
Bus & Motor
STARLINK V2MO, Unknown motor
Mass
575 kg wet, ~530 kg dry
Launch date (UTC)
2026-05-06 (1 month ago)
Launch vehicle
FALCON 9
Launch site
Air Force Western Test Range (AFWTR)
Object type
Payload
Rocket body
Debris
Shape & HBR
Unknown shape, 14.5 m
Radar Cross Section
Large (>1 m²)

Expand to show TLE details & history
Last TLE update: 14 hours ago

TLE from 14 hours ago
0 STARLINK-37615
1 69030U 26101F   26168.51991375  .00018547  00000-0  57523-3 0  9991
2 69030  97.2850  23.3619 0001990  85.1920 274.9550 15.33453984  6620
Epoch: 2026-06-17T12:28Z
TLE epoch observation values (Epoch: 2026-06-17T12:28:40.548Z)
Latitude
-0.00005°
Longitude
-69.58346°
Altitude
468.511 km
Speed
7.632 km/s
True Right ascension
01h 33m 26s
True Declination
0° 00' 00"
Sunlit
Object was in daylight at epoch
Visualization orbit readout
Latitude
Unknown
Longitude
Unknown
Altitude
Unknown
Speed
Unknown
Apparent Right ascension
Unknown
Apparent Declination
Unknown
Sunlit
N/A
Visualization observer readout
Local Sidereal Time
13:04:20
Azimuth
Unknown
Elevation
Unknown
Doppler factor
Unknown
Orbital elements
Apogee altitude
463.82 km
Perigee altitude
461.098 km
Semi-major axis
6,840.596 km
Eccentricity
0.0002
Inclination
97.285°
RAAN
23.3619°
Arg. of periapsis
85.192°
True anomaly
274.93228°
Mean anomaly
274.955°
Eccentric anomaly
274.94364°
Mean motion
3.83621 °/min
Orbital period
93.84 mins
BSTAR
0.00057523
Loading maneuver chart data...
Computing Atmospheric mass density...
Loading historical data...
Loading historical data...
Loading historical data...
Loading historical data...
Loading historical data...
Loading historical data...
Loading historical data...

Documentation

Showing up to 5 results
|